Time,TemperatureF,DewpointF,PressureIn,WindDirection,WindDirectionDegrees,WindSpeedMPH,WindSpeedGustMPH,Humidity,HourlyPrecipIn,Conditions,Clouds,dailyrainin,SoftwareType,DateUTC
2013-12-29 00:07:00,37.8,36.0,30.20,West,268,0.0,3.0,91,0.03,,,0.18,weatherlink.com 1.10,2013-12-29 05:07:00,
2013-12-29 00:22:00,37.5,35.0,30.17,WNW,303,1.0,2.0,91,0.03,,,0.18,weatherlink.com 1.10,2013-12-29 05:22:00,
2013-12-29 00:37:00,37.2,35.0,30.16,NNW,335,0.0,2.0,91,0.03,,,0.19,weatherlink.com 1.10,2013-12-29 05:37:00,
2013-12-29 00:52:00,37.0,35.0,30.15,WNW,296,3.0,3.0,91,0.02,,,0.19,weatherlink.com 1.10,2013-12-29 05:52:00,
2013-12-29 01:07:00,36.9,35.0,30.14,WSW,253,0.0,2.0,91,0.02,,,0.20,weatherlink.com 1.10,2013-12-29 06:07:00,
2013-12-29 01:22:00,36.8,35.0,30.13,WSW,253,0.0,1.0,91,0.02,,,0.20,weatherlink.com 1.10,2013-12-29 06:22:00,
2013-12-29 01:37:00,36.7,35.0,30.12,WSW,253,0.0,1.0,92,0.02,,,0.21,weatherlink.com 1.10,2013-12-29 06:37:00,
2013-12-29 01:52:00,36.5,34.0,30.10,WSW,253,0.0,0.0,92,0.03,,,0.22,weatherlink.com 1.10,2013-12-29 06:52:00,
2013-12-29 02:08:00,36.5,34.0,30.08,SE,138,0.0,2.0,92,0.03,,,0.23,weatherlink.com 1.10,2013-12-29 07:08:00,
2013-12-29 02:23:00,36.5,35.0,30.06,WSW,239,0.0,4.0,93,0.05,,,0.26,weatherlink.com 1.10,2013-12-29 07:23:00,
2013-12-29 02:38:00,37.0,35.0,30.05,WNW,286,0.0,5.0,93,0.06,,,0.27,weatherlink.com 1.10,2013-12-29 07:38:00,
2013-12-29 02:53:00,37.3,36.0,30.05,WNW,296,0.0,3.0,93,0.07,,,0.29,weatherlink.com 1.10,2013-12-29 07:53:00,
2013-12-29 03:08:00,37.4,36.0,30.05,WSW,247,0.0,6.0,93,0.07,,,0.31,weatherlink.com 1.10,2013-12-29 08:08:00,
2013-12-29 03:23:00,37.2,35.0,30.04,NNW,347,0.0,3.0,92,0.06,,,0.32,weatherlink.com 1.10,2013-12-29 08:23:00,
2013-12-29 03:38:00,36.9,35.0,30.03,NNE,24,0.0,2.0,92,0.06,,,0.33,weatherlink.com 1.10,2013-12-29 08:38:00,
2013-12-29 03:53:00,36.6,35.0,30.01,East,80,0.0,2.0,92,0.03,,,0.33,weatherlink.com 1.10,2013-12-29 08:53:00,
2013-12-29 04:08:00,36.4,34.0,30.00,SW,219,0.0,5.0,92,0.03,,,0.34,weatherlink.com 1.10,2013-12-29 09:08:00,
2013-12-29 04:23:00,36.4,34.0,29.99,SW,225,1.0,4.0,92,0.03,,,0.35,weatherlink.com 1.10,2013-12-29 09:23:00,
2013-12-29 04:38:00,36.4,35.0,29.96,West,280,1.0,4.0,93,0.02,,,0.35,weatherlink.com 1.10,2013-12-29 09:38:00,
2013-12-29 04:53:00,36.4,35.0,29.96,WSW,240,2.0,5.0,93,0.03,,,0.36,weatherlink.com 1.10,2013-12-29 09:53:00,
2013-12-29 05:08:00,36.5,35.0,29.94,West,267,4.0,6.0,93,0.03,,,0.37,weatherlink.com 1.10,2013-12-29 10:08:00,
2013-12-29 05:23:00,36.9,35.0,29.92,SW,231,1.0,5.0,93,0.04,,,0.39,weatherlink.com 1.10,2013-12-29 10:23:00,
2013-12-29 05:38:00,38.0,37.0,29.91,SW,233,5.0,9.0,94,0.04,,,0.39,weatherlink.com 1.10,2013-12-29 10:38:00,
2013-12-29 05:53:00,38.8,37.0,29.89,WSW,246,3.0,7.0,93,0.03,,,0.39,weatherlink.com 1.10,2013-12-29 10:53:00,
2013-12-29 06:08:00,39.4,38.0,29.89,WSW,248,1.0,5.0,94,0.04,,,0.41,weatherlink.com 1.10,2013-12-29 11:08:00,
2013-12-29 06:23:00,40.1,39.0,29.89,SW,234,0.0,4.0,94,0.04,,,0.43,weatherlink.com 1.10,2013-12-29 11:23:00,
2013-12-29 06:38:00,40.4,39.0,29.88,NE,49,0.0,4.0,94,0.07,,,0.46,weatherlink.com 1.10,2013-12-29 11:38:00,
2013-12-29 06:53:00,41.0,39.0,29.87,West,273,1.0,5.0,94,0.09,,,0.48,weatherlink.com 1.10,2013-12-29 11:53:00,
2013-12-29 07:10:00,41.4,40.0,29.88,NE,55,2.0,2.0,94,0.09,,,0.50,weatherlink.com 1.10,2013-12-29 12:10:00,
2013-12-29 07:23:00,41.3,40.0,29.88,ESE,108,0.0,5.0,94,0.09,,,0.52,weatherlink.com 1.10,2013-12-29 12:23:00,
2013-12-29 07:38:00,41.5,40.0,29.89,ENE,69,2.0,4.0,94,0.07,,,0.53,weatherlink.com 1.10,2013-12-29 12:38:00,
2013-12-29 07:53:00,41.7,40.0,29.89,ENE,69,0.0,2.0,94,0.05,,,0.53,weatherlink.com 1.10,2013-12-29 12:53:00,
2013-12-29 08:08:00,41.6,40.0,29.88,East,93,0.0,2.0,94,0.03,,,0.53,weatherlink.com 1.10,2013-12-29 13:08:00,
2013-12-29 08:23:00,41.5,40.0,29.89,ESE,103,0.0,3.0,94,0.02,,,0.00,weatherlink.com 1.10,2013-12-29 13:23:00,
2013-12-29 08:38:00,41.8,40.0,29.88,East,82,0.0,1.0,94,0.01,,,0.00,weatherlink.com 1.10,2013-12-29 13:38:00,
2013-12-29 08:53:00,42.1,41.0,29.86,East,82,0.0,1.0,94,0.01,,,0.00,weatherlink.com 1.10,2013-12-29 13:53:00,
2013-12-29 09:08:00,42.6,41.0,29.85,East,82,0.0,2.0,95,0.01,,,0.00,weatherlink.com 1.10,2013-12-29 14:08:00,
2013-12-29 09:23:00,42.6,41.0,29.85,East,82,0.0,2.0,94,0.00,,,0.00,weatherlink.com 1.10,2013-12-29 14:23:00,
2013-12-29 09:38:00,42.7,41.0,29.85,East,82,0.0,2.0,94,0.00,,,0.00,weatherlink.com 1.10,2013-12-29 14:38:00,
2013-12-29 09:53:00,43.1,42.0,29.85,ENE,74,2.0,2.0,94,0.00,,,0.00,weatherlink.com 1.10,2013-12-29 14:53:00,
2013-12-29 10:08:00,43.6,42.0,29.85,NE,55,3.0,3.0,95,0.00,,,0.00,weatherlink.com 1.10,2013-12-29 15:08:00,
2013-12-29 10:23:00,44.3,43.0,29.85,ESE,114,3.0,10.0,95,0.00,,,0.00,weatherlink.com 1.10,2013-12-29 15:23:00,
2013-12-29 10:38:00,44.1,43.0,29.85,ESE,104,0.0,8.0,95,0.00,,,0.00,weatherlink.com 1.10,2013-12-29 15:38:00,
2013-12-29 10:54:00,44.1,43.0,29.86,East,80,5.0,7.0,94,0.00,,,0.00,weatherlink.com 1.10,2013-12-29 15:54:00,
2013-12-29 11:23:00,43.7,42.0,29.86,ESE,117,2.0,8.0,94,0.00,,,0.00,weatherlink.com 1.10,2013-12-29 16:23:00,
2013-12-29 11:39:00,43.5,42.0,29.85,East,90,3.0,9.0,93,0.00,,,0.00,weatherlink.com 1.10,2013-12-29 16:39:00,
2013-12-29 11:54:00,43.0,41.0,29.84,East,91,2.0,10.0,91,0.00,,,0.00,weatherlink.com 1.10,2013-12-29 16:54:00,
2013-12-29 12:09:00,43.1,40.0,29.83,East,81,1.0,9.0,89,0.00,,,0.00,weatherlink.com 1.10,2013-12-29 17:09:00,
2013-12-29 12:24:00,43.4,40.0,29.83,ESE,116,5.0,10.0,88,0.00,,,0.00,weatherlink.com 1.10,2013-12-29 17:24:00,
2013-12-29 12:39:00,44.2,41.0,29.83,ESE,121,3.0,13.0,87,0.00,,,0.00,weatherlink.com 1.10,2013-12-29 17:39:00,
2013-12-29 12:54:00,44.8,41.0,29.82,East,87,3.0,12.0,86,0.00,,,0.00,weatherlink.com 1.10,2013-12-29 17:54:00,
2013-12-29 13:09:00,45.0,41.0,29.82,SE,142,4.0,14.0,85,0.00,,,0.00,weatherlink.com 1.10,2013-12-29 18:09:00,
2013-12-29 13:24:00,44.8,40.0,29.83,SE,144,3.0,9.0,84,0.00,,,0.00,weatherlink.com 1.10,2013-12-29 18:24:00,
2013-12-29 13:39:00,43.8,39.0,29.84,East,84,6.0,11.0,84,0.00,,,0.00,weatherlink.com 1.10,2013-12-29 18:39:00,
2013-12-29 13:54:00,43.8,40.0,29.84,SE,126,4.0,14.0,85,0.00,,,0.00,weatherlink.com 1.10,2013-12-29 18:54:00,
2013-12-29 14:09:00,43.2,39.0,29.84,ESE,107,2.0,19.0,85,0.00,,,0.00,weatherlink.com 1.10,2013-12-29 19:09:00,
2013-12-29 14:24:00,42.5,39.0,29.85,East,96,8.0,13.0,86,0.00,,,0.00,weatherlink.com 1.10,2013-12-29 19:24:00,
2013-12-29 14:40:00,42.0,38.0,29.86,ENE,71,7.0,14.0,87,0.00,,,0.00,weatherlink.com 1.10,2013-12-29 19:40:00,
2013-12-29 14:54:00,42.0,38.0,29.86,ENE,62,5.0,14.0,87,0.00,,,0.00,weatherlink.com 1.10,2013-12-29 19:54:00,
2013-12-29 15:09:00,42.0,38.0,29.87,East,95,8.0,17.0,86,0.00,,,0.00,weatherlink.com 1.10,2013-12-29 20:09:00,
2013-12-29 15:24:00,42.0,38.0,29.87,East,88,1.0,10.0,86,0.00,,,0.00,weatherlink.com 1.10,2013-12-29 20:24:00,
2013-12-29 15:39:00,42.0,38.0,29.88,East,99,2.0,11.0,87,0.00,,,0.00,weatherlink.com 1.10,2013-12-29 20:39:00,
2013-12-29 15:54:00,42.0,38.0,29.88,East,97,2.0,13.0,86,0.00,,,0.00,weatherlink.com 1.10,2013-12-29 20:54:00,
2013-12-29 16:09:00,41.7,38.0,29.89,East,98,5.0,10.0,86,0.00,,,0.00,weatherlink.com 1.10,2013-12-29 21:09:00,
2013-12-29 16:24:00,41.4,38.0,29.90,ESE,114,5.0,9.0,87,0.00,,,0.00,weatherlink.com 1.10,2013-12-29 21:24:00,
2013-12-29 16:39:00,41.3,38.0,29.90,East,94,7.0,7.0,87,0.00,,,0.00,weatherlink.com 1.10,2013-12-29 21:39:00,
2013-12-29 16:54:00,41.3,38.0,29.91,ESE,114,4.0,7.0,88,0.00,,,0.00,weatherlink.com 1.10,2013-12-29 21:54:00,
2013-12-29 17:09:00,41.1,38.0,29.92,East,90,1.0,6.0,87,0.00,,,0.00,weatherlink.com 1.10,2013-12-29 22:09:00,
2013-12-29 17:24:00,41.0,37.0,29.92,ESE,111,2.0,9.0,87,0.00,,,0.00,weatherlink.com 1.10,2013-12-29 22:24:00,
2013-12-29 17:39:00,40.9,37.0,29.92,ESE,121,0.0,5.0,87,0.00,,,0.00,weatherlink.com 1.10,2013-12-29 22:39:00,
2013-12-29 17:54:00,40.8,37.0,29.92,ESE,115,2.0,7.0,87,0.00,,,0.00,weatherlink.com 1.10,2013-12-29 22:54:00,
2013-12-29 18:09:00,40.7,37.0,29.92,SW,221,0.0,8.0,86,0.00,,,0.00,weatherlink.com 1.10,2013-12-29 23:09:00,
2013-12-29 18:24:00,40.5,37.0,29.93,ESE,109,2.0,7.0,86,0.00,,,0.00,weatherlink.com 1.10,2013-12-29 23:24:00,
2013-12-29 18:39:00,40.8,37.0,29.94,West,261,0.0,4.0,86,0.00,,,0.00,weatherlink.com 1.10,2013-12-29 23:39:00,
2013-12-29 18:54:00,40.9,37.0,29.94,East,82,0.0,5.0,85,0.00,,,0.00,weatherlink.com 1.10,2013-12-29 23:54:00,
2013-12-29 19:09:00,40.9,37.0,29.95,ESE,108,2.0,9.0,85,0.00,,,0.00,weatherlink.com 1.10,2013-12-30 00:09:00,
2013-12-29 19:24:00,40.9,36.0,29.95,ESE,115,0.0,5.0,84,0.00,,,0.00,weatherlink.com 1.10,2013-12-30 00:24:00,
2013-12-29 19:39:00,40.8,36.0,29.96,ESE,116,1.0,12.0,84,0.00,,,0.00,weatherlink.com 1.10,2013-12-30 00:39:00,
2013-12-29 19:55:00,40.8,36.0,29.97,NE,41,4.0,7.0,83,0.00,,,0.00,weatherlink.com 1.10,2013-12-30 00:55:00,
2013-12-29 20:10:00,40.7,36.0,29.97,ENE,67,4.0,9.0,82,0.00,,,0.00,weatherlink.com 1.10,2013-12-30 01:10:00,
2013-12-29 20:25:00,40.8,35.0,29.98,East,98,5.0,14.0,80,0.00,,,0.00,weatherlink.com 1.10,2013-12-30 01:25:00,
2013-12-29 20:40:00,40.6,35.0,29.98,ENE,77,5.0,11.0,79,0.00,,,0.00,weatherlink.com 1.10,2013-12-30 01:40:00,
2013-12-29 20:55:00,40.3,34.0,29.98,East,80,7.0,13.0,78,0.01,,,0.01,weatherlink.com 1.10,2013-12-30 01:55:00,
2013-12-29 21:10:00,39.9,34.0,29.99,East,87,10.0,14.0,78,0.01,,,0.01,weatherlink.com 1.10,2013-12-30 02:10:00,
2013-12-29 21:25:00,39.5,34.0,30.00,East,99,2.0,12.0,79,0.01,,,0.01,weatherlink.com 1.10,2013-12-30 02:25:00,
2013-12-29 21:40:00,39.2,34.0,29.99,ENE,63,5.0,12.0,81,0.01,,,0.01,weatherlink.com 1.10,2013-12-30 02:40:00,
2013-12-29 21:55:00,39.1,34.0,30.00,East,91,6.0,13.0,82,0.00,,,0.01,weatherlink.com 1.10,2013-12-30 02:55:00,
2013-12-29 22:10:00,39.0,34.0,30.00,East,90,3.0,11.0,82,0.00,,,0.01,weatherlink.com 1.10,2013-12-30 03:10:00,
2013-12-29 22:25:00,39.0,34.0,30.00,ESE,113,7.0,10.0,82,0.00,,,0.01,weatherlink.com 1.10,2013-12-30 03:25:00,
2013-12-29 22:40:00,39.0,34.0,30.00,ESE,105,8.0,15.0,83,0.00,,,0.01,weatherlink.com 1.10,2013-12-30 03:40:00,
2013-12-29 22:55:00,38.9,34.0,30.01,SW,215,3.0,14.0,83,0.00,,,0.01,weatherlink.com 1.10,2013-12-30 03:55:00,
2013-12-29 23:25:00,38.7,34.0,30.02,SE,132,3.0,11.0,83,0.00,,,0.01,weatherlink.com 1.10,2013-12-30 04:25:00,
2013-12-29 23:40:00,38.4,33.0,30.02,SE,138,1.0,10.0,82,0.00,,,0.01,weatherlink.com 1.10,2013-12-30 04:40:00,
2013-12-29 23:55:00,38.4,34.0,30.02,ENE,69,3.0,10.0,83,0.00,,,0.01,weatherlink.com 1.10,2013-12-30 04:55:00,